7M1JBF-11 Weather Reports


Display with metric or nautical units.
time (UTC)temp
F
wind
direction
speed
MPH
gust
MPH
rain 1hr
in
rain 24hr
in
rain mn
in
humidity
%
barometer
mb
20260508151909 71 225 0.0 3.0 0.00 0.00 0.00 100 1002.8
20260508150908 71 90 0.0 2.0 0.00 0.00 0.01 100 1002.4
20260508145906 72 90 0.0 2.0 0.00 0.00 0.01 100 1002.4
20260508144905 72 54 2.0 4.0 0.00 0.00 0.01 100 1002.1
20260508140900 72 77 2.0 4.0 0.00 0.00 0.01 100 1001.7
20260508133858 72 101 2.0 3.0 0.00 0.00 0.01 100 1001.4
20260508132854 72 63 1.0 4.0 0.00 0.00 0.01 100 1001.0
20260508131853 72 146 3.0 7.0 0.00 0.00 0.01 100 1001.0
20260508130851 72 186 4.0 11.0 0.00 0.00 0.01 100 1000.8
20260508125850 72 225 5.0 8.0 0.00 0.00 0.01 100 1000.7
20260508124849 72 234 8.0 13.0 0.00 0.00 0.01 100 1000.7
20260508123847 72 222 7.0 7.0 0.00 0.00 0.01 100 1000.8
20260508122846 72 185 5.0 8.0 0.00 0.00 0.01 100 1000.8
20260508121845 72 154 3.0 12.0 0.00 0.00 0.01 100 1000.7
20260508120843 72 102 4.0 14.0 0.00 0.00 0.01 100 1000.6
20260508115842 72 225 15.0 21.0 0.00 0.00 0.01 100 1000.7
20260508114840 72 241 5.0 16.0 0.00 0.00 0.01 100 1000.7
20260508112838 72 173 5.0 17.0 0.00 0.00 0.01 100 1000.4
20260508111836 72 208 8.0 16.0 0.00 0.00 0.01 100 1000.3
20260508110835 72 231 14.0 15.0 0.00 0.00 0.01 100 1000.4
20260508105834 72 225 7.0 21.0 0.00 0.00 0.01 100 1000.3
20260508104832 72 225 29.0 29.0 0.00 0.00 0.01 100 1000.3
20260508103831 72 222 13.0 22.0 0.00 0.00 0.01 100 1000.3
20260508102830 72 234 18.0 23.0 0.00 0.00 0.01 100 1000.0
20260508101828 72 225 10.0 12.0 0.00 0.00 0.01 100 1000.2
20260508100827 72 209 8.0 18.0 0.00 0.00 0.01 100 1000.3
20260508095826 72 235 14.0 25.0 0.00 0.00 0.01 100 1000.3
20260508094824 72 229 15.0 19.0 0.00 0.00 0.01 100 1000.2
20260508093823 71 229 14.0 14.0 0.00 0.00 0.01 100 1000.0
20260508092821 71 225 10.0 18.0 0.00 0.00 0.01 100 1000.2
20260508091820 71 231 4.0 12.0 0.00 0.00 0.01 100 1000.5
20260508090819 71 209 5.0 16.0 0.00 0.00 0.01 100 1000.6
20260508085817 71 216 9.0 13.0 0.00 0.00 0.01 100 1000.4
20260508084816 71 220 11.0 13.0 0.00 0.00 0.01 100 1000.3
20260508083815 71 225 23.0 23.0 0.00 0.00 0.01 100 1000.7
20260508082813 72 227 12.0 13.0 0.00 0.00 0.01 100 1000.9
20260508081812 72 229 12.0 18.0 0.00 0.00 0.01 100 1001.0
20260508080810 72 231 10.0 15.0 0.00 0.00 0.01 100 1001.1
20260508075809 73 220 7.0 18.0 0.00 0.00 0.01 100 1001.2
20260508074808 73 225 9.0 25.0 0.00 0.00 0.01 100 1001.5
20260508073807 74 183 7.0 24.0 0.00 0.00 0.01 100 1001.6
20260508072805 74 71 3.0 18.0 0.00 0.00 0.01 100 1001.5
20260508071804 75 220 10.0 13.0 0.00 0.00 0.01 100 1001.6
20260508070802 75 100 3.0 20.0 0.00 0.00 0.01 100 1001.4
20260508064800 75 225 8.0 9.0 0.00 0.00 0.01 100 1001.9
20260508063758 76 225 11.0 14.0 0.00 0.00 0.01 100 1002.1
20260508062757 76 135 6.0 14.0 0.00 0.00 0.01 100 1001.8
20260508061756 76 225 9.0 16.0 0.00 0.00 0.01 100 1001.9
20260508060754 75 243 11.0 14.0 0.00 0.00 0.01 100 1002.4
20260508055753 75 225 9.0 15.0 0.00 0.00 0.01 100 1002.1
20260508054751 75 225 4.0 15.0 0.00 0.00 0.01 100 1002.2
20260508053750 75 210 9.0 12.0 0.00 0.00 0.01 100 1002.6
20260508052749 76 227 10.0 11.0 0.00 0.00 0.01 100 1002.8
20260508051747 76 229 7.0 19.0 0.00 0.00 0.01 100 1002.8
20260508050746 76 221 7.0 17.0 0.00 0.00 0.01 100 1003.1
20260508045745 76 229 15.0 32.0 0.00 0.00 0.01 100 1003.2
20260508044743 76 184 7.0 23.0 0.00 0.00 0.01 100 1003.3
20260508043742 76 210 15.0 22.0 0.00 0.00 0.01 100 1003.3
20260508042741 76 225 17.0 17.0 0.00 0.00 0.00 100 1003.8
20260508041739 77 225 11.0 15.0 0.00 0.00 0.00 100 1003.9
20260508040738 77 222 16.0 18.0 0.00 0.00 0.00 100 1004.2
20260508035736 77 212 6.0 20.0 0.00 0.00 0.00 100 1004.0
20260508034735 77 229 15.0 15.0 0.00 0.00 0.00 100 1004.1
20260508033734 77 202 5.0 20.0 0.00 0.00 0.00 100 1004.4
20260508032732 77 180 2.0 20.0 0.00 0.00 0.00 100 1004.5
20260508030730 78 225 9.0 13.0 0.00 0.00 0.00 100 1004.9
20260508025728 78 225 9.0 14.0 0.00 0.00 0.00 100 1005.2
20260508024727 79 211 5.0 10.0 0.00 0.00 0.00 100 1005.1
20260508023725 80 202 6.0 18.0 0.00 0.00 0.00 100 1005.1
20260508022724 80 210 6.0 8.0 0.00 0.00 0.00 100 1005.2
20260508021723 81 261 3.0 10.0 0.00 0.00 0.00 100 1005.3
20260508020721 82 173 4.0 13.0 0.00 0.00 0.00 100 1005.2
20260508015720 82 225 1.0 9.0 0.00 0.00 0.00 100 1005.0
20260508014719 83 227 6.0 7.0 0.00 0.00 0.00 100 1005.0
20260508013717 83 78 8.0 8.0 0.00 0.00 0.00 100 1005.3
20260508012716 83 87 0.0 3.0 0.00 0.00 0.00 100 1005.1
20260508011715 83 94 0.0 5.0 0.00 0.00 0.00 100 1005.4
20260508005712 85 315 0.0 9.0 0.00 0.00 0.00 100 1005.8
20260508004711 85 270 1.0 1.0 0.00 0.00 0.00 100 1006.0
20260508001707 83 225 4.0 6.0 0.00 0.00 0.00 100 1006.4
20260508000705 82 56 1.0 5.0 0.00 0.00 0.00 100 1006.3
20260507234702 82 193 2.0 6.0 0.00 0.00 0.00 100 1006.7
20260507233701 82 222 2.0 9.0 0.00 0.00 0.00 100 1006.6
20260507231658 83 233 0.0 0.0 0.00 0.00 0.00 100 1006.7
20260507230657 83 229 2.0 2.0 0.00 0.00 0.00 100 1006.8
20260507225656 81 82 0.0 3.0 0.00 0.00 0.00 100 1007.0
20260507224654 80 225 3.0 4.0 0.00 0.00 0.00 100 1007.0
20260507223653 79 222 1.0 1.0 0.00 0.00 0.00 100 1007.0
20260507222652 78 225 0.0 0.0 0.00 0.00 0.00 100 1007.1
20260507221650 78 270 0.0 3.0 0.00 0.00 0.00 100 1007.2
20260507220649 76 231 4.0 6.0 0.00 0.00 0.00 100 1007.4
20260507214647 73 112 0.0 4.0 0.00 0.00 0.00 100 1007.3
20260507212643 70 231 2.0 5.0 0.00 0.00 0.00 100 1007.3
20260507211642 70 231 1.0 4.0 0.00 0.00 0.00 100 1007.2
20260507210641 69 225 1.0 5.0 0.00 0.00 0.00 100 1007.2
20260507205639 69 135 1.0 7.0 0.00 0.00 0.00 100 1007.2
20260507204638 68 195 2.0 5.0 0.00 0.00 0.00 100 1007.2
20260507203636 68 220 3.0 6.0 0.00 0.00 0.00 100 1007.5
20260507202635 67 229 5.0 8.0 0.00 0.00 0.00 100 1007.4
20260507201634 67 225 1.0 6.0 0.00 0.00 0.00 100 1007.1
20260507200632 67 225 4.0 9.0 0.00 0.00 0.00 100 1007.2
20260507195631 67 218 2.0 4.0 0.00 0.00 0.00 100 1007.0
20260507194630 67 229 4.0 4.0 0.00 0.00 0.00 100 1007.0
20260507192627 67 207 0.0 2.0 0.00 0.00 0.00 100 1006.8
20260507191626 67 225 0.0 4.0 0.00 0.00 0.00 100 1006.9
20260507190624 67 45 0.0 4.0 0.00 0.00 0.00 100 1006.8
20260507185623 67 225 0.0 1.0 0.00 0.00 0.00 100 1007.1
20260507184622 67 225 0.0 2.0 0.00 0.00 0.00 100 1007.1
20260507182619 67 231 4.0 5.0 0.00 0.00 0.00 100 1007.0
20260507181618 67 225 0.0 2.0 0.00 0.00 0.00 100 1007.0
20260507180616 67 225 0.0 3.0 0.00 0.00 0.00 100 1007.0
20260507175615 67 225 1.0 2.0 0.00 0.00 0.00 100 1007.1
20260507174613 67 225 0.0 1.0 0.00 0.00 0.00 100 1006.8
20260507173612 67 238 2.0 2.0 0.00 0.00 0.00 100 1006.9
20260507172611 67 236 0.0 4.0 0.00 0.00 0.00 100 1007.0
20260507171609 67 95 1.0 3.0 0.00 0.00 0.00 100 1007.1
20260507170608 68 229 4.0 5.0 0.00 0.00 0.00 100 1007.2
20260507165607 68 225 5.0 7.0 0.00 0.00 0.00 100 1007.5
20260507164605 68 225 6.0 6.0 0.00 0.00 0.00 100 1007.5
20260507163604 68 200 2.0 6.0 0.00 0.00 0.00 100 1007.5
20260507162603 68 216 3.0 3.0 0.00 0.00 0.00 100 1007.6
20260507161601 68 225 2.0 3.0 0.00 0.00 0.00 100 1007.6
20260507160600 68 247 1.0 2.0 0.00 0.00 0.00 100 1007.6